Tracking 18980 objects as of 22-Feb-2018
HD Live streaming from Space Station
objects crossing your sky now

FENGYUN 1C DEB

Track FENGYUN 1C DEB now!
10-day predictions


NORAD ID: 30154
Int'l Code: 1999-025TK
Perigee: 835.5 km
Apogee: 1,127.2 km
Inclination: 98.5 °
Period: 104.6 minutes
Semi major axis: 7352 km
RCS: 0.025 m2 (small)
Launch date: May 10, 1999
Source: People's Republic of China (PRC)
Launch site: Taiyaun Space Center, China (TSC)

Note: This is SATELLITE DEBRIS
aabbcc
Your satellite tracking list
Your tracking list is empty




NASA's NSSDC Master Catalog

Two Line Element Set (TLE):
1 30154U 99025TK  18052.81800597 +.00000685 +00000-0 +63161-3 0  9991
2 30154 098.4798 355.7116 0198400 019.4032 033.1396 13.77102350556694
Source of the keplerian elements: AFSPC